WXM80 ListenWXM80 Stop

You find our weather info also at:

UK Metoffice

WeatherCloud

Weather Underground

Northeastern Weather Network

AWEKAS

Citizen Weather Observer Program (CWOP)

HAMweather, WeatherForYou, PWS Weather


Weather Underground History page Text

Daily Summary for March 27, 2017 Units:  Both    English   Metric
« Previous Day
Next Day »
Daily Weekly Monthly Yearly Custom
  High: Low: Average:
Temperature: 47.2 °F /  8.4 °C 37.7 °F /  3.2 °C 40.8 °F /  4.9 °C
Dew Point: 46.7 °F /  8.2 °C 36.9 °F /  2.7 °C 40.1 °F /  4.5 °C
Humidity: 98 % 95 % 97 %
Wind Speed: 8.6 mph /  13.8 km/h - 2.7 mph /  4.3 km/h
Wind Gust: 11.5 mph /  18.5 km/h - -
Wind:- - ENE
Pressure: 30.30 in /  1026 hPa 29.96 in /  1014.4 hPa -
Precipitation: 0.00 in /  0 mm    
Historical Graphs
 
 
Tabular Data for March 27, 2017
Time Temperature Dew Point Pressure Wind Wind Speed Wind Gust Humidity Rainfall Rate (Hourly)
00:02 37.9 °F /  3.3 °C 36.9 °F /  2.7 °C 30.30 in /  1026 hPa ENE 6.2 mph /  10 km/h 8.1 mph /  13 km/h 96 % 0.00 in /  0 mm
00:07 37.9 °F /  3.3 °C 36.9 °F /  2.7 °C 30.30 in /  1026 hPa ENE 6.0 mph /  9.7 km/h 9.0 mph /  14.5 km/h 96 % 0.00 in /  0 mm
00:12 37.9 °F /  3.3 °C 36.9 °F /  2.7 °C 30.30 in /  1026 hPa ENE 5.6 mph /  9 km/h 10.4 mph /  16.7 km/h 96 % 0.00 in /  0 mm
00:17 37.9 °F /  3.3 °C 36.9 °F /  2.7 °C 30.30 in /  1026 hPa East 5.6 mph /  9 km/h 8.1 mph /  13 km/h 96 % 0.00 in /  0 mm
00:22 37.9 °F /  3.3 °C 36.9 °F /  2.7 °C 30.30 in /  1026 hPa ENE 6.0 mph /  9.7 km/h 9.2 mph /  14.8 km/h 96 % 0.00 in /  0 mm
00:27 37.9 °F /  3.3 °C 36.9 °F /  2.7 °C 30.29 in /  1025.6 hPa ENE 6.0 mph /  9.7 km/h 10.0 mph /  16.1 km/h 96 % 0.00 in /  0 mm
00:32 37.9 °F /  3.3 °C 36.9 °F /  2.7 °C 30.29 in /  1025.6 hPa East 6.4 mph /  10.3 km/h 8.1 mph /  13 km/h 96 % 0.00 in /  0 mm
00:38 37.9 °F /  3.3 °C 37.1 °F /  2.8 °C 30.28 in /  1025.3 hPa ENE 6.3 mph /  10.1 km/h 9.2 mph /  14.8 km/h 97 % 0.00 in /  0 mm
00:43 37.9 °F /  3.3 °C 37.1 °F /  2.8 °C 30.28 in /  1025.3 hPa ENE 6.4 mph /  10.3 km/h 8.1 mph /  13 km/h 97 % 0.00 in /  0 mm
00:48 37.9 °F /  3.3 °C 37.1 °F /  2.8 °C 30.28 in /  1025.3 hPa ENE 6.0 mph /  9.7 km/h 9.2 mph /  14.8 km/h 97 % 0.00 in /  0 mm
00:53 37.8 °F /  3.2 °C 37.0 °F /  2.8 °C 30.28 in /  1025.3 hPa ENE 7.0 mph /  11.3 km/h 10.4 mph /  16.7 km/h 97 % 0.00 in /  0 mm
00:58 37.8 °F /  3.2 °C 37.0 °F /  2.8 °C 30.28 in /  1025.3 hPa ENE 6.2 mph /  10 km/h 8.1 mph /  13 km/h 97 % 0.00 in /  0 mm
01:03 37.8 °F /  3.2 °C 37.0 °F /  2.8 °C 30.27 in /  1024.9 hPa ENE 8.6 mph /  13.8 km/h 10.4 mph /  16.7 km/h 97 % 0.00 in /  0 mm
01:08 37.8 °F /  3.2 °C 37.0 °F /  2.8 °C 30.27 in /  1024.9 hPa East 8.3 mph /  13.4 km/h 10.4 mph /  16.7 km/h 97 % 0.00 in /  0 mm
01:13 37.7 °F /  3.2 °C 36.9 °F /  2.7 °C 30.26 in /  1024.6 hPa East 6.0 mph /  9.7 km/h 8.1 mph /  13 km/h 97 % 0.00 in /  0 mm
01:18 37.7 °F /  3.2 °C 36.9 °F /  2.7 °C 30.26 in /  1024.6 hPa East 6.5 mph /  10.5 km/h 9.2 mph /  14.8 km/h 97 % 0.00 in /  0 mm
01:23 37.7 °F /  3.2 °C 36.9 °F /  2.7 °C 30.26 in /  1024.6 hPa ENE 5.6 mph /  9 km/h 11.5 mph /  18.5 km/h 97 % 0.00 in /  0 mm
01:28 37.7 °F /  3.2 °C 36.9 °F /  2.7 °C 30.26 in /  1024.6 hPa ENE 5.7 mph /  9.2 km/h 9.2 mph /  14.8 km/h 97 % 0.00 in /  0 mm
01:33 37.7 °F /  3.2 °C 36.9 °F /  2.7 °C 30.25 in /  1024.3 hPa ENE 8.1 mph /  13 km/h 10.4 mph /  16.7 km/h 97 % 0.00 in /  0 mm
01:38 37.7 °F /  3.2 °C 36.9 °F /  2.7 °C 30.25 in /  1024.3 hPa ENE 7.0 mph /  11.3 km/h 10.4 mph /  16.7 km/h 97 % 0.00 in /  0 mm
01:43 37.7 °F /  3.2 °C 36.9 °F /  2.7 °C 30.25 in /  1024.3 hPa ENE 7.1 mph /  11.4 km/h 9.2 mph /  14.8 km/h 97 % 0.00 in /  0 mm
01:48 37.7 °F /  3.2 °C 36.9 °F /  2.7 °C 30.24 in /  1023.9 hPa East 6.5 mph /  10.5 km/h 9.2 mph /  14.8 km/h 97 % 0.00 in /  0 mm
01:53 37.8 °F /  3.2 °C 37.0 °F /  2.8 °C 30.24 in /  1023.9 hPa ENE 6.1 mph /  9.8 km/h 6.9 mph /  11.1 km/h 97 % 0.00 in /  0 mm
01:58 37.8 °F /  3.2 °C 37.0 °F /  2.8 °C 30.24 in /  1023.9 hPa ENE 7.2 mph /  11.6 km/h 10.4 mph /  16.7 km/h 97 % 0.00 in /  0 mm
02:03 37.8 °F /  3.2 °C 37.0 °F /  2.8 °C 30.24 in /  1023.9 hPa East 6.7 mph /  10.8 km/h 9.2 mph /  14.8 km/h 97 % 0.00 in /  0 mm
02:08 37.8 °F /  3.2 °C 37.0 °F /  2.8 °C 30.24 in /  1023.9 hPa ENE 6.8 mph /  10.9 km/h 8.1 mph /  13 km/h 97 % 0.00 in /  0 mm
02:13 37.8 °F /  3.2 °C 37.0 °F /  2.8 °C 30.24 in /  1023.9 hPa ENE 6.4 mph /  10.3 km/h 8.1 mph /  13 km/h 97 % 0.00 in /  0 mm
02:19 37.8 °F /  3.2 °C 37.0 °F /  2.8 °C 30.23 in /  1023.6 hPa East 5.4 mph /  8.7 km/h 9.2 mph /  14.8 km/h 97 % 0.00 in /  0 mm
02:24 37.8 °F /  3.2 °C 37.0 °F /  2.8 °C 30.23 in /  1023.6 hPa ENE 6.4 mph /  10.3 km/h 9.2 mph /  14.8 km/h 97 % 0.00 in /  0 mm
02:29 37.8 °F /  3.2 °C 37.0 °F /  2.8 °C 30.23 in /  1023.6 hPa East 5.3 mph /  8.5 km/h 8.1 mph /  13 km/h 97 % 0.00 in /  0 mm
02:34 37.8 °F /  3.2 °C 37.0 °F /  2.8 °C 30.23 in /  1023.6 hPa ENE 5.3 mph /  8.5 km/h 6.9 mph /  11.1 km/h 97 % 0.00 in /  0 mm
02:39 37.8 °F /  3.2 °C 37.0 °F /  2.8 °C 30.22 in /  1023.2 hPa ENE 6.2 mph /  10 km/h 8.1 mph /  13 km/h 97 % 0.00 in /  0 mm
02:44 37.8 °F /  3.2 °C 37.0 °F /  2.8 °C 30.22 in /  1023.2 hPa ENE 6.2 mph /  10 km/h 9.2 mph /  14.8 km/h 97 % 0.00 in /  0 mm
02:49 37.8 °F /  3.2 °C 37.0 °F /  2.8 °C 30.22 in /  1023.2 hPa ENE 6.6 mph /  10.6 km/h 9.2 mph /  14.8 km/h 97 % 0.00 in /  0 mm
02:54 37.8 °F /  3.2 °C 37.0 °F /  2.8 °C 30.22 in /  1023.2 hPa ENE 6.5 mph /  10.5 km/h 9.2 mph /  14.8 km/h 97 % 0.00 in /  0 mm
02:59 37.8 °F /  3.2 °C 37.0 °F /  2.8 °C 30.21 in /  1022.9 hPa ENE 7.6 mph /  12.2 km/h 10.4 mph /  16.7 km/h 97 % 0.00 in /  0 mm
03:04 37.8 °F /  3.2 °C 37.0 °F /  2.8 °C 30.21 in /  1022.9 hPa East 5.9 mph /  9.5 km/h 7.0 mph /  11.3 km/h 97 % 0.00 in /  0 mm
03:09 37.9 °F /  3.3 °C 37.1 °F /  2.8 °C 30.20 in /  1022.6 hPa ENE 6.5 mph /  10.5 km/h 8.1 mph /  13 km/h 97 % 0.00 in /  0 mm
03:14 37.9 °F /  3.3 °C 37.1 °F /  2.8 °C 30.20 in /  1022.6 hPa ENE 6.1 mph /  9.8 km/h 8.1 mph /  13 km/h 97 % 0.00 in /  0 mm
03:19 37.9 °F /  3.3 °C 37.1 °F /  2.8 °C 30.19 in /  1022.2 hPa East 5.4 mph /  8.7 km/h 8.1 mph /  13 km/h 97 % 0.00 in /  0 mm
03:24 37.9 °F /  3.3 °C 37.1 °F /  2.8 °C 30.19 in /  1022.2 hPa ENE 5.5 mph /  8.9 km/h 7.0 mph /  11.3 km/h 97 % 0.00 in /  0 mm
03:29 37.9 °F /  3.3 °C 37.1 °F /  2.8 °C 30.19 in /  1022.2 hPa East 5.5 mph /  8.9 km/h 8.1 mph /  13 km/h 97 % 0.00 in /  0 mm
03:34 38.0 °F /  3.3 °C 37.2 °F /  2.9 °C 30.18 in /  1021.9 hPa East 4.7 mph /  7.6 km/h 8.1 mph /  13 km/h 97 % 0.00 in /  0 mm
03:39 38.0 °F /  3.3 °C 37.2 °F /  2.9 °C 30.18 in /  1021.9 hPa ENE 6.1 mph /  9.8 km/h 8.1 mph /  13 km/h 97 % 0.00 in /  0 mm
03:44 38.0 °F /  3.3 °C 37.2 °F /  2.9 °C 30.18 in /  1021.9 hPa ENE 4.7 mph /  7.6 km/h 6.9 mph /  11.1 km/h 97 % 0.00 in /  0 mm
03:49 38.0 °F /  3.3 °C 37.2 °F /  2.9 °C 30.18 in /  1021.9 hPa East 5.7 mph /  9.2 km/h 9.2 mph /  14.8 km/h 97 % 0.00 in /  0 mm
03:54 38.0 °F /  3.3 °C 37.2 °F /  2.9 °C 30.18 in /  1021.9 hPa NE 5.5 mph /  8.9 km/h 8.1 mph /  13 km/h 97 % 0.00 in /  0 mm
03:59 38.0 °F /  3.3 °C 37.2 °F /  2.9 °C 30.17 in /  1021.6 hPa ENE 6.5 mph /  10.5 km/h 9.2 mph /  14.8 km/h 97 % 0.00 in /  0 mm
04:04 38.0 °F /  3.3 °C 37.2 °F /  2.9 °C 30.17 in /  1021.6 hPa ENE 5.0 mph /  8 km/h 6.9 mph /  11.1 km/h 97 % 0.00 in /  0 mm
04:09 38.0 °F /  3.3 °C 37.2 °F /  2.9 °C 30.17 in /  1021.6 hPa ENE 5.4 mph /  8.7 km/h 7.0 mph /  11.3 km/h 97 % 0.00 in /  0 mm
04:14 38.0 °F /  3.3 °C 37.2 °F /  2.9 °C 30.17 in /  1021.6 hPa East 5.7 mph /  9.2 km/h 6.0 mph /  9.7 km/h 97 % 0.00 in /  0 mm
04:20 38.0 °F /  3.3 °C 37.2 °F /  2.9 °C 30.17 in /  1021.6 hPa East 5.5 mph /  8.9 km/h 8.1 mph /  13 km/h 97 % 0.00 in /  0 mm
04:25 38.0 °F /  3.3 °C 37.2 °F /  2.9 °C 30.17 in /  1021.6 hPa ENE 5.3 mph /  8.5 km/h 9.2 mph /  14.8 km/h 97 % 0.00 in /  0 mm
04:30 38.0 °F /  3.3 °C 37.2 °F /  2.9 °C 30.16 in /  1021.2 hPa ENE 5.0 mph /  8 km/h 9.2 mph /  14.8 km/h 97 % 0.00 in /  0 mm
04:35 38.1 °F /  3.4 °C 37.3 °F /  2.9 °C 30.17 in /  1021.6 hPa ENE 7.2 mph /  11.6 km/h 11.5 mph /  18.5 km/h 97 % 0.00 in /  0 mm
04:40 38.1 °F /  3.4 °C 37.3 °F /  2.9 °C 30.17 in /  1021.6 hPa East 6.1 mph /  9.8 km/h 9.2 mph /  14.8 km/h 97 % 0.00 in /  0 mm
04:45 38.1 °F /  3.4 °C 37.3 °F /  2.9 °C 30.16 in /  1021.2 hPa ENE 7.2 mph /  11.6 km/h 9.2 mph /  14.8 km/h 97 % 0.00 in /  0 mm
04:50 38.1 °F /  3.4 °C 37.3 °F /  2.9 °C 30.16 in /  1021.2 hPa ENE 5.0 mph /  8 km/h 6.9 mph /  11.1 km/h 97 % 0.00 in /  0 mm
04:55 38.1 °F /  3.4 °C 37.3 °F /  2.9 °C 30.16 in /  1021.2 hPa ENE 4.5 mph /  7.2 km/h 8.1 mph /  13 km/h 97 % 0.00 in /  0 mm
05:00 38.1 °F /  3.4 °C 37.3 °F /  2.9 °C 30.16 in /  1021.2 hPa ENE 5.4 mph /  8.7 km/h 6.9 mph /  11.1 km/h 97 % 0.00 in /  0 mm
05:05 38.1 °F /  3.4 °C 37.3 °F /  2.9 °C 30.16 in /  1021.2 hPa East 5.5 mph /  8.9 km/h 7.0 mph /  11.3 km/h 97 % 0.00 in /  0 mm
05:10 38.2 °F /  3.4 °C 37.4 °F /  3 °C 30.15 in /  1020.9 hPa ENE 5.5 mph /  8.9 km/h 8.1 mph /  13 km/h 97 % 0.00 in /  0 mm
05:15 38.2 °F /  3.4 °C 37.4 °F /  3 °C 30.15 in /  1020.9 hPa ENE 5.3 mph /  8.5 km/h 9.2 mph /  14.8 km/h 97 % 0.00 in /  0 mm
05:20 38.2 °F /  3.4 °C 37.4 °F /  3 °C 30.15 in /  1020.9 hPa ENE 5.1 mph /  8.2 km/h 8.1 mph /  13 km/h 97 % 0.00 in /  0 mm
05:25 38.2 °F /  3.4 °C 37.4 °F /  3 °C 30.15 in /  1020.9 hPa ENE 5.0 mph /  8 km/h 6.9 mph /  11.1 km/h 97 % 0.00 in /  0 mm
05:30 38.2 °F /  3.4 °C 37.4 °F /  3 °C 30.16 in /  1021.2 hPa ENE 6.1 mph /  9.8 km/h 10.4 mph /  16.7 km/h 97 % 0.00 in /  0 mm
05:35 38.2 °F /  3.4 °C 37.4 °F /  3 °C 30.15 in /  1020.9 hPa ENE 5.4 mph /  8.7 km/h 8.0 mph /  12.9 km/h 97 % 0.00 in /  0 mm
05:40 38.2 °F /  3.4 °C 37.4 °F /  3 °C 30.15 in /  1020.9 hPa ENE 5.1 mph /  8.2 km/h 9.2 mph /  14.8 km/h 97 % 0.00 in /  0 mm
05:45 38.2 °F /  3.4 °C 37.4 °F /  3 °C 30.15 in /  1020.9 hPa East 4.8 mph /  7.7 km/h 8.1 mph /  13 km/h 97 % 0.00 in /  0 mm
05:50 38.2 °F /  3.4 °C 37.4 °F /  3 °C 30.14 in /  1020.5 hPa ENE 5.7 mph /  9.2 km/h 11.5 mph /  18.5 km/h 97 % 0.00 in /  0 mm
05:55 38.2 °F /  3.4 °C 37.4 °F /  3 °C 30.14 in /  1020.5 hPa ENE 6.8 mph /  10.9 km/h 8.1 mph /  13 km/h 97 % 0.00 in /  0 mm
06:00 38.2 °F /  3.4 °C 37.7 °F /  3.2 °C 30.14 in /  1020.5 hPa ENE 4.6 mph /  7.4 km/h 9.0 mph /  14.5 km/h 98 % 0.00 in /  0 mm
06:05 38.2 °F /  3.4 °C 37.7 °F /  3.2 °C 30.14 in /  1020.5 hPa ENE 4.8 mph /  7.7 km/h 5.8 mph /  9.3 km/h 98 % 0.00 in /  0 mm
06:10 38.2 °F /  3.4 °C 37.7 °F /  3.2 °C 30.13 in /  1020.2 hPa ENE 6.2 mph /  10 km/h 8.1 mph /  13 km/h 98 % 0.00 in /  0 mm
06:16 38.2 °F /  3.4 °C 37.7 °F /  3.2 °C 30.13 in /  1020.2 hPa ENE 3.5 mph /  5.6 km/h 9.2 mph /  14.8 km/h 98 % 0.00 in /  0 mm
06:21 38.2 °F /  3.4 °C 37.7 °F /  3.2 °C 30.12 in /  1019.9 hPa East 5.7 mph /  9.2 km/h 8.1 mph /  13 km/h 98 % 0.00 in /  0 mm
06:26 38.2 °F /  3.4 °C 37.7 °F /  3.2 °C 30.12 in /  1019.9 hPa East 5.7 mph /  9.2 km/h 8.1 mph /  13 km/h 98 % 0.00 in /  0 mm
06:31 38.2 °F /  3.4 °C 37.7 °F /  3.2 °C 30.12 in /  1019.9 hPa ENE 5.5 mph /  8.9 km/h 6.9 mph /  11.1 km/h 98 % 0.00 in /  0 mm
06:32 38.2 °F /  3.4 °C 37.7 °F /  3.2 °C 30.12 in /  1019.9 hPa East 5.4 mph /  8.7 km/h 8.0 mph /  12.9 km/h 98 % 0.00 in /  0 mm
06:37 38.3 °F /  3.5 °C 37.8 °F /  3.2 °C 30.12 in /  1019.9 hPa East 5.1 mph /  8.2 km/h 6.9 mph /  11.1 km/h 98 % 0.00 in /  0 mm
06:42 38.3 °F /  3.5 °C 37.8 °F /  3.2 °C 30.12 in /  1019.9 hPa East 5.7 mph /  9.2 km/h 6.9 mph /  11.1 km/h 98 % 0.00 in /  0 mm
06:47 38.3 °F /  3.5 °C 37.8 °F /  3.2 °C 30.12 in /  1019.9 hPa ENE 4.9 mph /  7.9 km/h 8.1 mph /  13 km/h 98 % 0.00 in /  0 mm
06:52 38.3 °F /  3.5 °C 37.8 °F /  3.2 °C 30.12 in /  1019.9 hPa East 5.1 mph /  8.2 km/h 6.9 mph /  11.1 km/h 98 % 0.00 in /  0 mm
06:57 38.4 °F /  3.6 °C 37.9 °F /  3.3 °C 30.11 in /  1019.5 hPa ENE 4.7 mph /  7.6 km/h 8.1 mph /  13 km/h 98 % 0.00 in /  0 mm
07:02 38.3 °F /  3.5 °C 37.8 °F /  3.2 °C 30.11 in /  1019.5 hPa East 6.0 mph /  9.7 km/h 8.0 mph /  12.9 km/h 98 % 0.00 in /  0 mm
07:07 38.3 °F /  3.5 °C 37.8 °F /  3.2 °C 30.11 in /  1019.5 hPa East 5.0 mph /  8 km/h 9.0 mph /  14.5 km/h 98 % 0.00 in /  0 mm
07:12 38.3 °F /  3.5 °C 37.8 °F /  3.2 °C 30.11 in /  1019.5 hPa ENE 6.0 mph /  9.7 km/h 10.0 mph /  16.1 km/h 98 % 0.00 in /  0 mm
07:17 38.4 °F /  3.6 °C 37.9 °F /  3.3 °C 30.11 in /  1019.5 hPa ENE 5.0 mph /  8 km/h 8.0 mph /  12.9 km/h 98 % 0.00 in /  0 mm
07:22 38.4 °F /  3.6 °C 37.9 °F /  3.3 °C 30.11 in /  1019.5 hPa East 5.6 mph /  9 km/h 8.0 mph /  12.9 km/h 98 % 0.00 in /  0 mm
07:27 38.4 °F /  3.6 °C 37.9 °F /  3.3 °C 30.11 in /  1019.5 hPa East 5.0 mph /  8 km/h 7.0 mph /  11.3 km/h 98 % 0.00 in /  0 mm
07:32 38.5 °F /  3.6 °C 38.0 °F /  3.3 °C 30.11 in /  1019.5 hPa East 3.0 mph /  4.8 km/h 8.0 mph /  12.9 km/h 98 % 0.00 in /  0 mm
07:37 38.5 °F /  3.6 °C 38.0 °F /  3.3 °C 30.10 in /  1019.2 hPa ENE 3.0 mph /  4.8 km/h 7.0 mph /  11.3 km/h 98 % 0.00 in /  0 mm
07:42 38.6 °F /  3.7 °C 38.0 °F /  3.3 °C 30.10 in /  1019.2 hPa East 6.0 mph /  9.7 km/h 6.0 mph /  9.7 km/h 98 % 0.00 in /  0 mm
07:47 38.6 °F /  3.7 °C 38.1 °F /  3.4 °C 30.10 in /  1019.2 hPa East 6.0 mph /  9.7 km/h 7.0 mph /  11.3 km/h 98 % 0.00 in /  0 mm
07:52 38.6 °F /  3.7 °C 38.1 °F /  3.4 °C 30.10 in /  1019.2 hPa East 5.1 mph /  8.2 km/h 5.8 mph /  9.3 km/h 98 % 0.00 in /  0 mm
07:57 38.7 °F /  3.7 °C 38.2 °F /  3.4 °C 30.10 in /  1019.2 hPa East 4.4 mph /  7.1 km/h 4.6 mph /  7.4 km/h 98 % 0.00 in /  0 mm
08:03 38.7 °F /  3.7 °C 38.2 °F /  3.4 °C 30.10 in /  1019.2 hPa ENE 3.6 mph /  5.8 km/h 4.6 mph /  7.4 km/h 98 % 0.00 in /  0 mm
08:08 38.8 °F /  3.8 °C 38.3 °F /  3.5 °C 30.10 in /  1019.2 hPa ENE 3.0 mph /  4.8 km/h 6.9 mph /  11.1 km/h 98 % 0.00 in /  0 mm
08:13 38.8 °F /  3.8 °C 38.3 °F /  3.5 °C 30.10 in /  1019.2 hPa ENE 3.1 mph /  5 km/h 4.0 mph /  6.4 km/h 98 % 0.00 in /  0 mm
08:18 38.8 °F /  3.8 °C 38.3 °F /  3.5 °C 30.09 in /  1018.8 hPa East 4.0 mph /  6.4 km/h 5.8 mph /  9.3 km/h 98 % 0.00 in /  0 mm
08:23 38.8 °F /  3.8 °C 38.3 °F /  3.5 °C 30.09 in /  1018.8 hPa ENE 3.6 mph /  5.8 km/h 5.0 mph /  8 km/h 98 % 0.00 in /  0 mm
08:28 38.9 °F /  3.8 °C 38.4 °F /  3.6 °C 30.08 in /  1018.5 hPa East 3.5 mph /  5.6 km/h 5.0 mph /  8 km/h 98 % 0.00 in /  0 mm
08:33 38.9 °F /  3.8 °C 38.4 °F /  3.6 °C 30.08 in /  1018.5 hPa East 3.0 mph /  4.8 km/h 5.8 mph /  9.3 km/h 98 % 0.00 in /  0 mm
08:38 38.9 °F /  3.8 °C 38.4 °F /  3.6 °C 30.08 in /  1018.5 hPa ENE 3.7 mph /  6 km/h 5.0 mph /  8 km/h 98 % 0.00 in /  0 mm
08:43 39.0 °F /  3.9 °C 38.5 °F /  3.6 °C 30.08 in /  1018.5 hPa East 2.3 mph /  3.7 km/h 3.5 mph /  5.6 km/h 98 % 0.00 in /  0 mm
08:48 39.0 °F /  3.9 °C 38.5 °F /  3.6 °C 30.08 in /  1018.5 hPa East 2.0 mph /  3.2 km/h 3.5 mph /  5.6 km/h 98 % 0.00 in /  0 mm
08:53 39.0 °F /  3.9 °C 38.5 °F /  3.6 °C 30.07 in /  1018.2 hPa East 2.3 mph /  3.7 km/h 3.5 mph /  5.6 km/h 98 % 0.00 in /  0 mm
08:58 39.2 °F /  4 °C 38.7 °F /  3.7 °C 30.07 in /  1018.2 hPa East 4.0 mph /  6.4 km/h 5.8 mph /  9.3 km/h 98 % 0.00 in /  0 mm
09:03 39.3 °F /  4.1 °C 38.8 °F /  3.8 °C 30.07 in /  1018.2 hPa East 3.3 mph /  5.3 km/h 5.0 mph /  8 km/h 98 % 0.00 in /  0 mm
09:08 39.3 °F /  4.1 °C 38.8 °F /  3.8 °C 30.07 in /  1018.2 hPa East 2.2 mph /  3.5 km/h 4.6 mph /  7.4 km/h 98 % 0.00 in /  0 mm
09:13 39.3 °F /  4.1 °C 38.8 °F /  3.8 °C 30.07 in /  1018.2 hPa East 3.0 mph /  4.8 km/h 4.6 mph /  7.4 km/h 98 % 0.00 in /  0 mm
09:18 39.4 °F /  4.1 °C 38.9 °F /  3.8 °C 30.07 in /  1018.2 hPa East 2.0 mph /  3.2 km/h 3.5 mph /  5.6 km/h 98 % 0.00 in /  0 mm
09:23 39.4 °F /  4.1 °C 38.9 °F /  3.8 °C 30.07 in /  1018.2 hPa ENE 1.8 mph /  2.9 km/h 4.6 mph /  7.4 km/h 98 % 0.00 in /  0 mm
09:28 39.5 °F /  4.2 °C 39.0 °F /  3.9 °C 30.07 in /  1018.2 hPa ENE 1.4 mph /  2.3 km/h 3.0 mph /  4.8 km/h 98 % 0.00 in /  0 mm
09:33 39.5 °F /  4.2 °C 39.0 °F /  3.9 °C 30.07 in /  1018.2 hPa ENE 0.6 mph /  1 km/h 2.0 mph /  3.2 km/h 98 % 0.00 in /  0 mm
09:38 39.5 °F /  4.2 °C 39.0 °F /  3.9 °C 30.08 in /  1018.5 hPa NE 0.4 mph /  0.6 km/h 2.0 mph /  3.2 km/h 98 % 0.00 in /  0 mm
09:43 39.5 °F /  4.2 °C 39.0 °F /  3.9 °C 30.09 in /  1018.8 hPa WNW 2.6 mph /  4.2 km/h 3.5 mph /  5.6 km/h 98 % 0.00 in /  0 mm
09:48 39.5 °F /  4.2 °C 39.0 °F /  3.9 °C 30.08 in /  1018.5 hPa WNW 0.6 mph /  1 km/h 2.3 mph /  3.7 km/h 98 % 0.00 in /  0 mm
09:53 39.6 °F /  4.2 °C 39.1 °F /  3.9 °C 30.07 in /  1018.2 hPa NNE 3.3 mph /  5.3 km/h 6.0 mph /  9.7 km/h 98 % 0.00 in /  0 mm
09:58 39.6 °F /  4.2 °C 39.1 °F /  3.9 °C 30.07 in /  1018.2 hPa NE 1.3 mph /  2.1 km/h 3.5 mph /  5.6 km/h 98 % 0.00 in /  0 mm
10:03 39.6 °F /  4.2 °C 39.1 °F /  3.9 °C 30.07 in /  1018.2 hPa ENE 2.4 mph /  3.9 km/h 3.5 mph /  5.6 km/h 98 % 0.00 in /  0 mm
10:08 39.6 °F /  4.2 °C 39.1 °F /  3.9 °C 30.07 in /  1018.2 hPa NNE 1.3 mph /  2.1 km/h 1.3 mph /  2.1 km/h 98 % 0.00 in /  0 mm
10:14 39.6 °F /  4.2 °C 39.1 °F /  3.9 °C 30.08 in /  1018.5 hPa North 1.5 mph /  2.4 km/h 2.3 mph /  3.7 km/h 98 % 0.00 in /  0 mm
10:19 39.6 °F /  4.2 °C 39.1 °F /  3.9 °C 30.07 in /  1018.2 hPa NNE 0.7 mph /  1.1 km/h 3.5 mph /  5.6 km/h 98 % 0.00 in /  0 mm
10:24 39.6 °F /  4.2 °C 39.1 °F /  3.9 °C 30.07 in /  1018.2 hPa ENE 0.4 mph /  0.6 km/h 3.5 mph /  5.6 km/h 98 % 0.00 in /  0 mm
10:29 39.5 °F /  4.2 °C 39.0 °F /  3.9 °C 30.07 in /  1018.2 hPa ENE 1.1 mph /  1.8 km/h 3.5 mph /  5.6 km/h 98 % 0.00 in /  0 mm
10:34 39.4 °F /  4.1 °C 38.9 °F /  3.8 °C 30.07 in /  1018.2 hPa ENE 1.2 mph /  1.9 km/h 2.3 mph /  3.7 km/h 98 % 0.00 in /  0 mm
10:39 39.4 °F /  4.1 °C 38.9 °F /  3.8 °C 30.06 in /  1017.8 hPa ENE 1.7 mph /  2.7 km/h 3.5 mph /  5.6 km/h 98 % 0.00 in /  0 mm
10:44 39.3 °F /  4.1 °C 38.8 °F /  3.8 °C 30.06 in /  1017.8 hPa ENE 1.6 mph /  2.6 km/h 2.3 mph /  3.7 km/h 98 % 0.01 in /  0.25 mm
10:49 39.4 °F /  4.1 °C 38.9 °F /  3.8 °C 30.06 in /  1017.8 hPa ENE 1.2 mph /  1.9 km/h 2.3 mph /  3.7 km/h 98 % 0.01 in /  0.25 mm
10:54 39.4 °F /  4.1 °C 38.9 °F /  3.8 °C 30.06 in /  1017.8 hPa ENE 0.2 mph /  0.3 km/h 2.3 mph /  3.7 km/h 98 % 0.01 in /  0.25 mm
10:59 39.4 °F /  4.1 °C 38.9 °F /  3.8 °C 30.06 in /  1017.8 hPa ENE 1.0 mph /  1.6 km/h 3.0 mph /  4.8 km/h 98 % 0.01 in /  0.25 mm
11:04 39.5 °F /  4.2 °C 39.0 °F /  3.9 °C 30.06 in /  1017.8 hPa ENE 0.1 mph /  0.2 km/h   98 % 0.01 in /  0.25 mm
11:09 39.5 °F /  4.2 °C 39.0 °F /  3.9 °C 30.05 in /  1017.5 hPa ENE 0.1 mph /  0.2 km/h 2.3 mph /  3.7 km/h 98 % 0.01 in /  0.25 mm
11:14 39.5 °F /  4.2 °C 39.0 °F /  3.9 °C 30.05 in /  1017.5 hPa ENE 0.5 mph /  0.8 km/h 2.0 mph /  3.2 km/h 98 % 0.01 in /  0.25 mm
11:19 39.6 °F /  4.2 °C 39.1 °F /  3.9 °C 30.05 in /  1017.5 hPa ENE 0.2 mph /  0.3 km/h 2.3 mph /  3.7 km/h 98 % 0.02 in /  0.51 mm
11:24 39.7 °F /  4.3 °C 39.2 °F /  4 °C 30.05 in /  1017.5 hPa ENE 0.5 mph /  0.8 km/h 1.2 mph /  1.9 km/h 98 % 0.02 in /  0.51 mm
11:29 39.7 °F /  4.3 °C 39.2 °F /  4 °C 30.05 in /  1017.5 hPa ENE 0.4 mph /  0.6 km/h 2.3 mph /  3.7 km/h 98 % 0.02 in /  0.51 mm
11:34 39.7 °F /  4.3 °C 39.2 °F /  4 °C 30.04 in /  1017.2 hPa ENE 0.7 mph /  1.1 km/h 2.3 mph /  3.7 km/h 98 % 0.02 in /  0.51 mm
11:39 39.7 °F /  4.3 °C 39.2 °F /  4 °C 30.03 in /  1016.8 hPa ENE 0.7 mph /  1.1 km/h 3.5 mph /  5.6 km/h 98 % 0.02 in /  0.51 mm
11:44 39.7 °F /  4.3 °C 39.2 °F /  4 °C 30.04 in /  1017.2 hPa Calm   1.2 mph /  1.9 km/h 98 % 0.01 in /  0.25 mm
11:49 39.8 °F /  4.3 °C 39.3 °F /  4.1 °C 30.04 in /  1017.2 hPa ENE 0.4 mph /  0.6 km/h 3.5 mph /  5.6 km/h 98 % 0.01 in /  0.25 mm
11:54 39.8 °F /  4.3 °C 39.3 °F /  4.1 °C 30.03 in /  1016.8 hPa ENE 1.1 mph /  1.8 km/h 3.0 mph /  4.8 km/h 98 % 0.01 in /  0.25 mm
11:59 39.8 °F /  4.3 °C 39.3 °F /  4.1 °C 30.03 in /  1016.8 hPa ENE 0.7 mph /  1.1 km/h 2.3 mph /  3.7 km/h 98 % 0.01 in /  0.25 mm
12:04 39.9 °F /  4.4 °C 39.4 °F /  4.1 °C 30.03 in /  1016.8 hPa ENE 2.4 mph /  3.9 km/h 3.5 mph /  5.6 km/h 98 % 0.01 in /  0.25 mm
12:09 40.0 °F /  4.4 °C 39.5 °F /  4.2 °C 30.03 in /  1016.8 hPa ENE 0.9 mph /  1.4 km/h 2.3 mph /  3.7 km/h 98 % 0.01 in /  0.25 mm
12:14 40.0 °F /  4.4 °C 39.5 °F /  4.2 °C 30.03 in /  1016.8 hPa ENE 0.8 mph /  1.3 km/h 3.5 mph /  5.6 km/h 98 % 0.01 in /  0.25 mm
12:19 40.1 °F /  4.5 °C 39.6 °F /  4.2 °C 30.03 in /  1016.8 hPa ENE 0.2 mph /  0.3 km/h 3.5 mph /  5.6 km/h 98 % 0.00 in /  0 mm
12:24 40.2 °F /  4.6 °C 39.7 °F /  4.3 °C 30.03 in /  1016.8 hPa ENE 0.8 mph /  1.3 km/h 3.5 mph /  5.6 km/h 98 % 0.00 in /  0 mm
12:29 40.2 °F /  4.6 °C 39.7 °F /  4.3 °C 30.02 in /  1016.5 hPa ENE 0.9 mph /  1.4 km/h 3.5 mph /  5.6 km/h 98 % 0.00 in /  0 mm
12:34 40.5 °F /  4.7 °C 40.0 °F /  4.4 °C 30.03 in /  1016.8 hPa ENE 0.3 mph /  0.5 km/h 2.3 mph /  3.7 km/h 98 % 0.00 in /  0 mm
12:39 40.6 °F /  4.8 °C 40.1 °F /  4.5 °C 30.02 in /  1016.5 hPa ENE 1.4 mph /  2.3 km/h 2.3 mph /  3.7 km/h 98 % 0.00 in /  0 mm
12:40 40.7 °F /  4.8 °C 40.2 °F /  4.6 °C 30.02 in /  1016.5 hPa ENE 0.9 mph /  1.4 km/h 2.3 mph /  3.7 km/h 98 % 0.00 in /  0 mm
12:46 40.8 °F /  4.9 °C 40.3 °F /  4.6 °C 30.02 in /  1016.5 hPa ENE 1.1 mph /  1.8 km/h 3.5 mph /  5.6 km/h 98 % 0.00 in /  0 mm
12:51 41.0 °F /  5 °C 40.5 °F /  4.7 °C 30.02 in /  1016.5 hPa ENE 2.0 mph /  3.2 km/h 4.6 mph /  7.4 km/h 98 % 0.00 in /  0 mm
12:56 41.4 °F /  5.2 °C 40.9 °F /  4.9 °C 30.02 in /  1016.5 hPa ENE 2.3 mph /  3.7 km/h 3.5 mph /  5.6 km/h 98 % 0.00 in /  0 mm
13:01 41.8 °F /  5.4 °C 41.3 °F /  5.2 °C 30.02 in /  1016.5 hPa ENE 1.7 mph /  2.7 km/h 3.5 mph /  5.6 km/h 98 % 0.00 in /  0 mm
13:06 42.2 °F /  5.7 °C 41.7 °F /  5.4 °C 30.02 in /  1016.5 hPa ENE 1.7 mph /  2.7 km/h 3.5 mph /  5.6 km/h 98 % 0.00 in /  0 mm
13:11 42.5 °F /  5.8 °C 42.0 °F /  5.6 °C 30.02 in /  1016.5 hPa ENE 2.6 mph /  4.2 km/h 3.5 mph /  5.6 km/h 98 % 0.00 in /  0 mm
13:16 42.6 °F /  5.9 °C 42.1 °F /  5.6 °C 30.02 in /  1016.5 hPa NE 2.9 mph /  4.7 km/h 3.5 mph /  5.6 km/h 98 % 0.00 in /  0 mm
13:21 42.7 °F /  5.9 °C 42.2 °F /  5.7 °C 30.02 in /  1016.5 hPa NE 1.6 mph /  2.6 km/h 3.5 mph /  5.6 km/h 98 % 0.00 in /  0 mm
13:26 42.9 °F /  6.1 °C 42.4 °F /  5.8 °C 30.02 in /  1016.5 hPa ENE 3.4 mph /  5.5 km/h 6.9 mph /  11.1 km/h 98 % 0.00 in /  0 mm
13:31 43.5 °F /  6.4 °C 43.0 °F /  6.1 °C 30.01 in /  1016.1 hPa NNE 3.9 mph /  6.3 km/h 4.0 mph /  6.4 km/h 98 % 0.00 in /  0 mm
13:37 43.9 °F /  6.6 °C 43.4 °F /  6.3 °C 30.01 in /  1016.1 hPa NE 2.5 mph /  4 km/h 3.5 mph /  5.6 km/h 98 % 0.00 in /  0 mm
13:42 44.1 °F /  6.7 °C 43.6 °F /  6.4 °C 30.01 in /  1016.1 hPa NE 2.6 mph /  4.2 km/h 4.6 mph /  7.4 km/h 98 % 0.00 in /  0 mm
13:47 44.1 °F /  6.7 °C 43.6 °F /  6.4 °C 30.01 in /  1016.1 hPa NE 2.0 mph /  3.2 km/h 3.5 mph /  5.6 km/h 98 % 0.00 in /  0 mm
13:52 44.0 °F /  6.7 °C 43.5 °F /  6.4 °C 30.01 in /  1016.1 hPa NE 2.4 mph /  3.9 km/h 4.0 mph /  6.4 km/h 98 % 0.00 in /  0 mm
13:57 43.3 °F /  6.3 °C 42.8 °F /  6 °C 30.01 in /  1016.1 hPa ENE 4.7 mph /  7.6 km/h 6.9 mph /  11.1 km/h 98 % 0.00 in /  0 mm
14:02 42.6 °F /  5.9 °C 42.1 °F /  5.6 °C 30.00 in /  1015.8 hPa ENE 2.1 mph /  3.4 km/h 3.5 mph /  5.6 km/h 98 % 0.00 in /  0 mm
14:07 42.6 °F /  5.9 °C 42.1 °F /  5.6 °C 30.00 in /  1015.8 hPa East 2.6 mph /  4.2 km/h 3.5 mph /  5.6 km/h 98 % 0.00 in /  0 mm
14:12 42.5 °F /  5.8 °C 42.0 °F /  5.6 °C 30.00 in /  1015.8 hPa ENE 2.8 mph /  4.5 km/h 4.6 mph /  7.4 km/h 98 % 0.00 in /  0 mm
14:17 42.4 °F /  5.8 °C 41.9 °F /  5.5 °C 30.00 in /  1015.8 hPa NE 1.2 mph /  1.9 km/h 3.5 mph /  5.6 km/h 98 % 0.00 in /  0 mm
14:22 42.5 °F /  5.8 °C 42.0 °F /  5.6 °C 30.00 in /  1015.8 hPa ENE 1.5 mph /  2.4 km/h 3.5 mph /  5.6 km/h 98 % 0.00 in /  0 mm
14:27 42.6 °F /  5.9 °C 42.1 °F /  5.6 °C 30.01 in /  1016.1 hPa ENE 0.5 mph /  0.8 km/h 2.3 mph /  3.7 km/h 98 % 0.00 in /  0 mm
14:33 42.6 °F /  5.9 °C 42.1 °F /  5.6 °C 30.00 in /  1015.8 hPa NNE 1.8 mph /  2.9 km/h 5.0 mph /  8 km/h 98 % 0.00 in /  0 mm
14:38 42.7 °F /  5.9 °C 42.2 °F /  5.7 °C 30.01 in /  1016.1 hPa NNE 0.5 mph /  0.8 km/h 2.3 mph /  3.7 km/h 98 % 0.00 in /  0 mm
14:43 42.7 °F /  5.9 °C 42.2 °F /  5.7 °C 30.01 in /  1016.1 hPa NNE 0.8 mph /  1.3 km/h 2.3 mph /  3.7 km/h 98 % 0.00 in /  0 mm
14:48 42.7 °F /  5.9 °C 42.2 °F /  5.7 °C 30.00 in /  1015.8 hPa NNE 0.7 mph /  1.1 km/h 2.3 mph /  3.7 km/h 98 % 0.00 in /  0 mm
14:53 42.6 °F /  5.9 °C 42.1 °F /  5.6 °C 30.00 in /  1015.8 hPa NNE 0.8 mph /  1.3 km/h 2.3 mph /  3.7 km/h 98 % 0.00 in /  0 mm
14:58 42.5 °F /  5.8 °C 42.0 °F /  5.6 °C 30.00 in /  1015.8 hPa Calm     98 % 0.00 in /  0 mm
15:03 42.4 °F /  5.8 °C 41.9 °F /  5.5 °C 30.00 in /  1015.8 hPa Calm   1.2 mph /  1.9 km/h 98 % 0.00 in /  0 mm
15:08 42.4 °F /  5.8 °C 41.9 °F /  5.5 °C 30.00 in /  1015.8 hPa NNE 0.2 mph /  0.3 km/h 1.2 mph /  1.9 km/h 98 % 0.00 in /  0 mm
15:13 42.3 °F /  5.7 °C 41.8 °F /  5.4 °C 30.00 in /  1015.8 hPa Calm   1.2 mph /  1.9 km/h 98 % 0.00 in /  0 mm
15:18 42.4 °F /  5.8 °C 41.9 °F /  5.5 °C 30.00 in /  1015.8 hPa NNE 0.9 mph /  1.4 km/h 2.3 mph /  3.7 km/h 98 % 0.00 in /  0 mm
15:23 42.7 °F /  5.9 °C 42.2 °F /  5.7 °C 29.99 in /  1015.5 hPa NNE 0.2 mph /  0.3 km/h 1.2 mph /  1.9 km/h 98 % 0.00 in /  0 mm
15:28 43.1 °F /  6.2 °C 42.6 °F /  5.9 °C 29.99 in /  1015.5 hPa NNE 0.9 mph /  1.4 km/h 2.3 mph /  3.7 km/h 98 % 0.00 in /  0 mm
15:29 43.2 °F /  6.2 °C 42.7 °F /  5.9 °C 29.99 in /  1015.5 hPa NNE 2.0 mph /  3.2 km/h 3.5 mph /  5.6 km/h 98 % 0.00 in /  0 mm
15:34 43.5 °F /  6.4 °C 43.0 °F /  6.1 °C 29.99 in /  1015.5 hPa NNE 0.9 mph /  1.4 km/h 3.5 mph /  5.6 km/h 98 % 0.00 in /  0 mm
15:35 43.6 °F /  6.4 °C 43.1 °F /  6.2 °C 29.99 in /  1015.5 hPa NNE 0.3 mph /  0.5 km/h 1.2 mph /  1.9 km/h 98 % 0.00 in /  0 mm
15:36 43.6 °F /  6.4 °C 43.1 °F /  6.2 °C 29.99 in /  1015.5 hPa Calm     98 % 0.00 in /  0 mm
15:37 43.6 °F /  6.4 °C 43.1 °F /  6.2 °C 29.99 in /  1015.5 hPa NNE 0.6 mph /  1 km/h 1.2 mph /  1.9 km/h 98 % 0.00 in /  0 mm
15:38 43.6 °F /  6.4 °C 43.1 °F /  6.2 °C 29.99 in /  1015.5 hPa NNE 0.4 mph /  0.6 km/h 2.3 mph /  3.7 km/h 98 % 0.00 in /  0 mm
15:42 43.6 °F /  6.4 °C 43.1 °F /  6.2 °C 29.99 in /  1015.5 hPa Calm     98 % 0.00 in /  0 mm
15:47 43.7 °F /  6.5 °C 43.2 °F /  6.2 °C 29.98 in /  1015.1 hPa NNE 1.2 mph /  1.9 km/h 2.3 mph /  3.7 km/h 98 % 0.00 in /  0 mm
15:52 43.8 °F /  6.6 °C 43.3 °F /  6.3 °C 29.98 in /  1015.1 hPa Calm   1.2 mph /  1.9 km/h 98 % 0.00 in /  0 mm
15:54 44.0 °F /  6.7 °C 43.5 °F /  6.4 °C 29.98 in /  1015.1 hPa NNE 1.3 mph /  2.1 km/h 2.3 mph /  3.7 km/h 98 % 0.00 in /  0 mm
15:55 44.0 °F /  6.7 °C 43.5 °F /  6.4 °C 29.98 in /  1015.1 hPa NNE 0.3 mph /  0.5 km/h 1.2 mph /  1.9 km/h 98 % 0.00 in /  0 mm
15:57 44.1 °F /  6.7 °C 43.6 °F /  6.4 °C 29.98 in /  1015.1 hPa Calm   1.2 mph /  1.9 km/h 98 % 0.00 in /  0 mm
16:01 44.2 °F /  6.8 °C 43.7 °F /  6.5 °C 29.99 in /  1015.5 hPa NNE 0.1 mph /  0.2 km/h 1.2 mph /  1.9 km/h 98 % 0.00 in /  0 mm
16:06 44.5 °F /  6.9 °C 44.0 °F /  6.7 °C 29.98 in /  1015.1 hPa NNE 1.3 mph /  2.1 km/h 3.5 mph /  5.6 km/h 98 % 0.00 in /  0 mm
16:11 44.6 °F /  7 °C 44.1 °F /  6.7 °C 29.98 in /  1015.1 hPa NNE 0.6 mph /  1 km/h 2.3 mph /  3.7 km/h 98 % 0.00 in /  0 mm
16:16 44.7 °F /  7.1 °C 44.2 °F /  6.8 °C 29.98 in /  1015.1 hPa NNE 0.4 mph /  0.6 km/h 2.3 mph /  3.7 km/h 98 % 0.00 in /  0 mm
16:21 44.5 °F /  6.9 °C 44.0 °F /  6.7 °C 29.98 in /  1015.1 hPa NNE 0.1 mph /  0.2 km/h 1.2 mph /  1.9 km/h 98 % 0.00 in /  0 mm
16:26 44.3 °F /  6.8 °C 43.8 °F /  6.6 °C 29.98 in /  1015.1 hPa Calm     98 % 0.00 in /  0 mm
16:31 44.5 °F /  6.9 °C 44.0 °F /  6.7 °C 29.98 in /  1015.1 hPa Calm   1.2 mph /  1.9 km/h 98 % 0.00 in /  0 mm
16:36 44.6 °F /  7 °C 44.1 °F /  6.7 °C 29.98 in /  1015.1 hPa Calm   1.2 mph /  1.9 km/h 98 % 0.00 in /  0 mm
16:41 44.7 °F /  7.1 °C 44.2 °F /  6.8 °C 29.98 in /  1015.1 hPa Calm   1.2 mph /  1.9 km/h 98 % 0.00 in /  0 mm
16:46 44.7 °F /  7.1 °C 44.2 °F /  6.8 °C 29.97 in /  1014.8 hPa NNE 2.3 mph /  3.7 km/h 3.5 mph /  5.6 km/h 98 % 0.00 in /  0 mm
16:51 44.8 °F /  7.1 °C 44.3 °F /  6.8 °C 29.97 in /  1014.8 hPa Calm     98 % 0.00 in /  0 mm
16:56 44.8 °F /  7.1 °C 44.3 °F /  6.8 °C 29.97 in /  1014.8 hPa Calm   1.2 mph /  1.9 km/h 98 % 0.00 in /  0 mm
17:01 44.9 °F /  7.2 °C 44.4 °F /  6.9 °C 29.97 in /  1014.8 hPa Calm     98 % 0.00 in /  0 mm
17:06 45.1 °F /  7.3 °C 44.6 °F /  7 °C 29.97 in /  1014.8 hPa Calm     98 % 0.00 in /  0 mm
17:11 45.3 °F /  7.4 °C 44.8 °F /  7.1 °C 29.96 in /  1014.4 hPa Calm     98 % 0.00 in /  0 mm
17:16 45.5 °F /  7.5 °C 45.0 °F /  7.2 °C 29.96 in /  1014.4 hPa Calm   1.2 mph /  1.9 km/h 98 % 0.00 in /  0 mm
17:22 45.6 °F /  7.6 °C 45.1 °F /  7.3 °C 29.96 in /  1014.4 hPa Calm     98 % 0.00 in /  0 mm
17:26 45.8 °F /  7.7 °C 45.3 °F /  7.4 °C 29.96 in /  1014.4 hPa Calm     98 % 0.00 in /  0 mm
17:31 46.1 °F /  7.8 °C 45.6 °F /  7.6 °C 29.96 in /  1014.4 hPa Calm     98 % 0.00 in /  0 mm
17:37 46.3 °F /  7.9 °C 45.8 °F /  7.7 °C 29.96 in /  1014.4 hPa Calm   2.3 mph /  3.7 km/h 98 % 0.00 in /  0 mm
17:42 46.6 °F /  8.1 °C 46.1 °F /  7.8 °C 29.96 in /  1014.4 hPa Calm     98 % 0.00 in /  0 mm
17:47 46.8 °F /  8.2 °C 46.3 °F /  7.9 °C 29.96 in /  1014.4 hPa Calm     98 % 0.00 in /  0 mm
17:52 47.0 °F /  8.3 °C 46.5 °F /  8.1 °C 29.97 in /  1014.8 hPa Calm     98 % 0.00 in /  0 mm
17:57 47.2 °F /  8.4 °C 46.7 °F /  8.2 °C 29.97 in /  1014.8 hPa Calm     98 % 0.00 in /  0 mm
18:02 47.2 °F /  8.4 °C 46.7 °F /  8.2 °C 29.96 in /  1014.4 hPa Calm     98 % 0.00 in /  0 mm
18:07 47.2 °F /  8.4 °C 46.7 °F /  8.2 °C 29.96 in /  1014.4 hPa Calm     98 % 0.00 in /  0 mm
18:12 47.1 °F /  8.4 °C 46.6 °F /  8.1 °C 29.97 in /  1014.8 hPa Calm     98 % 0.00 in /  0 mm
18:17 47.1 °F /  8.4 °C 46.6 °F /  8.1 °C 29.97 in /  1014.8 hPa Calm     98 % 0.00 in /  0 mm
18:22 47.0 °F /  8.3 °C 46.5 °F /  8.1 °C 29.96 in /  1014.4 hPa NNE 1.6 mph /  2.6 km/h 3.0 mph /  4.8 km/h 98 % 0.00 in /  0 mm
18:27 46.9 °F /  8.3 °C 46.4 °F /  8 °C 29.96 in /  1014.4 hPa Calm   1.2 mph /  1.9 km/h 98 % 0.00 in /  0 mm
18:32 46.8 °F /  8.2 °C 46.3 °F /  7.9 °C 29.96 in /  1014.4 hPa Calm   1.2 mph /  1.9 km/h 98 % 0.00 in /  0 mm
18:37 46.5 °F /  8.1 °C 45.7 °F /  7.6 °C 29.96 in /  1014.4 hPa NNE 0.6 mph /  1 km/h 1.2 mph /  1.9 km/h 97 % 0.00 in /  0 mm
18:42 46.1 °F /  7.8 °C 45.3 °F /  7.4 °C 29.96 in /  1014.4 hPa Calm   1.2 mph /  1.9 km/h 97 % 0.00 in /  0 mm
18:47 45.9 °F /  7.7 °C 45.1 °F /  7.3 °C 29.96 in /  1014.4 hPa NNE 0.7 mph /  1.1 km/h 2.3 mph /  3.7 km/h 97 % 0.00 in /  0 mm
18:52 45.6 °F /  7.6 °C 44.8 °F /  7.1 °C 29.96 in /  1014.4 hPa Calm     97 % 0.00 in /  0 mm
18:57 45.4 °F /  7.4 °C 44.3 °F /  6.8 °C 29.97 in /  1014.8 hPa Calm     96 % 0.00 in /  0 mm
19:02 45.2 °F /  7.3 °C 44.1 °F /  6.7 °C 29.96 in /  1014.4 hPa Calm     96 % 0.00 in /  0 mm
19:07 44.9 °F /  7.2 °C 43.8 °F /  6.6 °C 29.97 in /  1014.8 hPa Calm     96 % 0.00 in /  0 mm
19:12 44.7 °F /  7.1 °C 43.6 °F /  6.4 °C 29.96 in /  1014.4 hPa Calm     96 % 0.00 in /  0 mm
19:17 44.6 °F /  7 °C 43.5 °F /  6.4 °C 29.97 in /  1014.8 hPa Calm     96 % 0.00 in /  0 mm
19:22 44.4 °F /  6.9 °C 43.3 °F /  6.3 °C 29.96 in /  1014.4 hPa Calm     96 % 0.00 in /  0 mm
19:27 44.2 °F /  6.8 °C 43.1 °F /  6.2 °C 29.96 in /  1014.4 hPa Calm     96 % 0.00 in /  0 mm
19:32 44.0 °F /  6.7 °C 42.7 °F /  5.9 °C 29.96 in /  1014.4 hPa Calm     95 % 0.00 in /  0 mm
19:37 44.0 °F /  6.7 °C 42.9 °F /  6.1 °C 29.96 in /  1014.4 hPa Calm     96 % 0.00 in /  0 mm
19:42 43.9 °F /  6.6 °C 42.8 °F /  6 °C 29.96 in /  1014.4 hPa Calm     96 % 0.00 in /  0 mm
19:47 43.8 °F /  6.6 °C 42.7 °F /  5.9 °C 29.96 in /  1014.4 hPa Calm     96 % 0.00 in /  0 mm
19:52 43.6 °F /  6.4 °C 42.6 °F /  5.9 °C 29.96 in /  1014.4 hPa Calm     96 % 0.00 in /  0 mm
19:57 43.5 °F /  6.4 °C 42.2 °F /  5.7 °C 29.96 in /  1014.4 hPa Calm     95 % 0.00 in /  0 mm
20:02 43.4 °F /  6.3 °C 42.1 °F /  5.6 °C 29.97 in /  1014.8 hPa Calm     95 % 0.00 in /  0 mm
20:07 43.3 °F /  6.3 °C 42.0 °F /  5.6 °C 29.97 in /  1014.8 hPa Calm     95 % 0.00 in /  0 mm
20:12 43.2 °F /  6.2 °C 42.1 °F /  5.6 °C 29.97 in /  1014.8 hPa Calm     96 % 0.00 in /  0 mm
20:17 43.1 °F /  6.2 °C 42.0 °F /  5.6 °C 29.97 in /  1014.8 hPa Calm     96 % 0.00 in /  0 mm
20:22 43.0 °F /  6.1 °C 41.9 °F /  5.5 °C 29.97 in /  1014.8 hPa Calm     96 % 0.00 in /  0 mm
20:27 42.9 °F /  6.1 °C 41.8 °F /  5.4 °C 29.97 in /  1014.8 hPa Calm     96 % 0.00 in /  0 mm
20:32 42.9 °F /  6.1 °C 41.8 °F /  5.4 °C 29.97 in /  1014.8 hPa Calm     96 % 0.00 in /  0 mm
20:37 42.7 °F /  5.9 °C 41.6 °F /  5.3 °C 29.97 in /  1014.8 hPa Calm   1.0 mph /  1.6 km/h 96 % 0.00 in /  0 mm
20:42 42.5 °F /  5.8 °C 41.5 °F /  5.3 °C 29.98 in /  1015.1 hPa Calm     96 % 0.00 in /  0 mm
20:47 42.3 °F /  5.7 °C 41.0 °F /  5 °C 29.98 in /  1015.1 hPa Calm     95 % 0.00 in /  0 mm
20:52 42.1 °F /  5.6 °C 40.8 °F /  4.9 °C 29.98 in /  1015.1 hPa Calm     95 % 0.00 in /  0 mm
20:57 42.0 °F /  5.6 °C 40.7 °F /  4.8 °C 29.98 in /  1015.1 hPa Calm     95 % 0.00 in /  0 mm
21:02 41.8 °F /  5.4 °C 40.5 °F /  4.7 °C 29.98 in /  1015.1 hPa NNE 1.2 mph /  1.9 km/h 2.3 mph /  3.7 km/h 95 % 0.00 in /  0 mm
21:07 41.6 °F /  5.3 °C 40.3 °F /  4.6 °C 29.99 in /  1015.5 hPa NNE 1.5 mph /  2.4 km/h 2.0 mph /  3.2 km/h 95 % 0.00 in /  0 mm
21:13 41.4 °F /  5.2 °C 40.1 °F /  4.5 °C 29.99 in /  1015.5 hPa Calm     95 % 0.00 in /  0 mm
21:18 41.3 °F /  5.2 °C 40.0 °F /  4.4 °C 29.99 in /  1015.5 hPa NNE 0.1 mph /  0.2 km/h 1.2 mph /  1.9 km/h 95 % 0.00 in /  0 mm
21:23 41.1 °F /  5.1 °C 39.8 °F /  4.3 °C 29.99 in /  1015.5 hPa NE 1.2 mph /  1.9 km/h 3.5 mph /  5.6 km/h 95 % 0.00 in /  0 mm
21:28 40.9 °F /  4.9 °C 39.6 °F /  4.2 °C 29.99 in /  1015.5 hPa NE 0.5 mph /  0.8 km/h 1.2 mph /  1.9 km/h 95 % 0.00 in /  0 mm
21:33 40.6 °F /  4.8 °C 39.3 °F /  4.1 °C 29.99 in /  1015.5 hPa NE 1.3 mph /  2.1 km/h 2.3 mph /  3.7 km/h 95 % 0.00 in /  0 mm
21:38 40.5 °F /  4.7 °C 39.2 °F /  4 °C 29.99 in /  1015.5 hPa NE 0.2 mph /  0.3 km/h 1.2 mph /  1.9 km/h 95 % 0.00 in /  0 mm
21:43 40.4 °F /  4.7 °C 39.4 °F /  4.1 °C 29.99 in /  1015.5 hPa NE 0.3 mph /  0.5 km/h 1.2 mph /  1.9 km/h 96 % 0.00 in /  0 mm
21:48 40.3 °F /  4.6 °C 39.3 °F /  4.1 °C 29.99 in /  1015.5 hPa NE 0.1 mph /  0.2 km/h 2.3 mph /  3.7 km/h 96 % 0.00 in /  0 mm
21:53 40.3 °F /  4.6 °C 39.3 °F /  4.1 °C 29.99 in /  1015.5 hPa NE 1.3 mph /  2.1 km/h 2.3 mph /  3.7 km/h 96 % 0.00 in /  0 mm
21:58 40.4 °F /  4.7 °C 39.4 °F /  4.1 °C 29.99 in /  1015.5 hPa ENE 2.3 mph /  3.7 km/h 3.5 mph /  5.6 km/h 96 % 0.00 in /  0 mm
22:00 40.4 °F /  4.7 °C 39.4 °F /  4.1 °C 29.99 in /  1015.5 hPa ENE 2.7 mph /  4.3 km/h 3.5 mph /  5.6 km/h 96 % 0.00 in /  0 mm
22:05 40.5 °F /  4.7 °C 39.4 °F /  4.1 °C 29.99 in /  1015.5 hPa ENE 2.0 mph /  3.2 km/h 3.0 mph /  4.8 km/h 96 % 0.00 in /  0 mm
22:10 40.6 °F /  4.8 °C 39.5 °F /  4.2 °C 29.99 in /  1015.5 hPa ENE 2.2 mph /  3.5 km/h 3.5 mph /  5.6 km/h 96 % 0.00 in /  0 mm
22:15 40.7 °F /  4.8 °C 39.9 °F /  4.4 °C 29.99 in /  1015.5 hPa East 2.5 mph /  4 km/h 4.6 mph /  7.4 km/h 97 % 0.00 in /  0 mm
22:20 40.7 °F /  4.8 °C 39.9 °F /  4.4 °C 30.00 in /  1015.8 hPa East 2.2 mph /  3.5 km/h 5.0 mph /  8 km/h 97 % 0.00 in /  0 mm
22:25 40.7 °F /  4.8 °C 39.9 °F /  4.4 °C 29.99 in /  1015.5 hPa East 2.2 mph /  3.5 km/h 3.5 mph /  5.6 km/h 97 % 0.00 in /  0 mm
22:30 40.6 °F /  4.8 °C 39.8 °F /  4.3 °C 29.99 in /  1015.5 hPa East 1.7 mph /  2.7 km/h 3.5 mph /  5.6 km/h 97 % 0.00 in /  0 mm
22:35 40.7 °F /  4.8 °C 39.9 °F /  4.4 °C 29.99 in /  1015.5 hPa East 2.8 mph /  4.5 km/h 4.6 mph /  7.4 km/h 97 % 0.00 in /  0 mm
22:41 40.7 °F /  4.8 °C 39.9 °F /  4.4 °C 29.99 in /  1015.5 hPa East 1.6 mph /  2.6 km/h 3.5 mph /  5.6 km/h 97 % 0.00 in /  0 mm
22:46 40.8 °F /  4.9 °C 40.0 °F /  4.4 °C 29.99 in /  1015.5 hPa ENE 2.8 mph /  4.5 km/h 3.5 mph /  5.6 km/h 97 % 0.00 in /  0 mm
22:51 40.8 °F /  4.9 °C 40.0 °F /  4.4 °C 29.99 in /  1015.5 hPa ENE 2.0 mph /  3.2 km/h 3.5 mph /  5.6 km/h 97 % 0.00 in /  0 mm
22:56 40.9 °F /  4.9 °C 40.1 °F /  4.5 °C 29.99 in /  1015.5 hPa ENE 2.6 mph /  4.2 km/h 4.6 mph /  7.4 km/h 97 % 0.00 in /  0 mm
23:01 40.9 °F /  4.9 °C 40.1 °F /  4.5 °C 29.98 in /  1015.1 hPa East 3.1 mph /  5 km/h 5.8 mph /  9.3 km/h 97 % 0.00 in /  0 mm
23:06 41.1 °F /  5.1 °C 40.3 °F /  4.6 °C 29.99 in /  1015.5 hPa East 3.0 mph /  4.8 km/h 5.0 mph /  8 km/h 97 % 0.00 in /  0 mm
23:11 41.1 °F /  5.1 °C 40.3 °F /  4.6 °C 29.98 in /  1015.1 hPa East 2.9 mph /  4.7 km/h 3.5 mph /  5.6 km/h 97 % 0.00 in /  0 mm
23:16 41.3 °F /  5.2 °C 40.5 °F /  4.7 °C 29.99 in /  1015.5 hPa East 2.9 mph /  4.7 km/h 4.6 mph /  7.4 km/h 97 % 0.00 in /  0 mm
23:21 41.3 °F /  5.2 °C 40.5 °F /  4.7 °C 29.99 in /  1015.5 hPa East 3.9 mph /  6.3 km/h 5.8 mph /  9.3 km/h 97 % 0.00 in /  0 mm
23:27 41.3 °F /  5.2 °C 40.5 °F /  4.7 °C 29.99 in /  1015.5 hPa East 3.8 mph /  6.1 km/h 5.8 mph /  9.3 km/h 97 % 0.00 in /  0 mm
23:32 41.3 °F /  5.2 °C 40.5 °F /  4.7 °C 29.99 in /  1015.5 hPa East 4.7 mph /  7.6 km/h 7.0 mph /  11.3 km/h 97 % 0.00 in /  0 mm
23:37 41.2 °F /  5.1 °C 40.4 °F /  4.7 °C 29.99 in /  1015.5 hPa East 4.1 mph /  6.6 km/h 5.8 mph /  9.3 km/h 97 % 0.00 in /  0 mm
23:42 41.2 °F /  5.1 °C 40.4 °F /  4.7 °C 30.00 in /  1015.8 hPa East 3.1 mph /  5 km/h 6.9 mph /  11.1 km/h 97 % 0.00 in /  0 mm
23:47 41.1 °F /  5.1 °C 40.3 °F /  4.6 °C 30.00 in /  1015.8 hPa East 4.5 mph /  7.2 km/h 6.9 mph /  11.1 km/h 97 % 0.00 in /  0 mm
23:52 41.1 °F /  5.1 °C 40.3 °F /  4.6 °C 29.99 in /  1015.5 hPa ENE 5.6 mph /  9 km/h 7.0 mph /  11.3 km/h 97 % 0.00 in /  0 mm
23:57 41.1 °F /  5.1 °C 40.3 °F /  4.6 °C 29.99 in /  1015.5 hPa East 5.7 mph /  9.2 km/h 6.9 mph /  11.1 km/h 97 % 0.00 in /  0 mm
Crab Meadow Weather
Compliments of Weather Underground - 3 mb

Script developed by  Jim McMurry - jmcmurry@mwt.net Adapted for the template by  Wim van der Kuil - Leuven-Template.eu

Astronomy: February 1865 is the only month recorded in history not to have a full moon.